Theta_e
334 335 334 334 332 332 331 330 332 334 335 336 336 336 334 335 336 338 339 339 338 337 338 338 337 336 335 335 337 339 340 341 342 342 342 343 343 346 348 349 349 348 348 349 351 351 347 343 342 342 342 342 342 341 340 340 339 339 339 338 337 337 337 337 337 338 340 342 344 345 345 345 345 345
335 335 333 332 331 330 329 330 331 332 333 333 334 334 334 335 335 336 338 338 337 337 337 337 337 336 335 334 334 334 334 337 341 343 343 343 343 343 345 347 347 347 347 347 349 351 344 338 338 340 340 341 342 342 341 342 341 341 341 340 339 339 338 338 338 338 339 341 344 345 345 345 345 345
335 334 332 332 330 329 330 331 330 330 331 332 332 333 333 334 334 335 336 337 338 337 338 338 337 337 336 335 335 334 333 335 339 341 342 342 343 342 342 344 346 347 346 346 348 349 344 340 341 341 341 341 341 342 342 342 342 343 342 341 341 340 340 339 338 338 339 342 344 344 344 344 344 344
334 333 332 331 330 330 331 330 330 330 330 330 331 331 331 332 333 334 335 336 336 336 336 337 337 337 337 336 336 336 335 336 338 340 341 341 342 341 341 344 346 347 347 347 348 349 348 346 345 343 342 341 341 341 341 342 342 343 342 342 341 341 340 339 339 339 341 343 343 344 344 344 344 344
334 333 331 331 331 331 330 329 329 329 329 329 328 328 328 329 331 332 333 335 336 336 336 337 338 338 338 338 338 338 338 338 340 342 343 342 340 339 341 345 348 348 347 347 348 349 350 349 346 343 342 341 339 341 342 343 344 344 343 341 340 340 340 339 340 341 342 343 343 343 343 343 344 344
333 332 331 331 331 330 329 328 328 327 327 327 326 326 326 327 328 329 331 333 334 336 337 337 338 339 340 340 340 340 340 340 341 343 344 342 340 339 340 343 346 348 348 348 348 348 349 349 346 345 345 342 339 341 344 345 345 344 343 340 339 340 339 340 341 342 343 343 343 344 344 344 344 344
332 331 331 330 330 329 328 328 326 325 325 325 326 325 326 326 326 326 328 331 333 335 337 337 338 339 341 342 342 341 341 341 342 343 345 343 342 341 339 339 345 349 349 348 348 348 349 348 347 348 349 344 340 342 344 345 344 343 341 339 339 339 340 342 343 343 343 343 344 344 344 344 344 344
332 331 331 330 329 329 328 327 325 324 325 325 326 325 325 326 326 326 327 328 330 332 335 337 338 338 339 341 343 343 344 344 344 344 345 345 345 343 339 339 345 349 349 349 349 349 350 349 349 351 351 346 342 343 344 343 342 341 340 339 340 341 343 343 343 343 343 344 344 344 344 345 345 345
331 331 330 329 329 329 328 327 325 324 325 325 325 325 325 325 325 325 325 326 327 329 332 335 337 338 338 340 342 342 344 345 344 344 345 345 346 344 339 338 344 348 349 350 350 351 353 352 353 353 352 346 343 343 344 343 342 341 341 341 342 343 344 343 343 344 344 344 344 345 345 344 345 345
332 331 330 330 330 329 329 328 326 324 324 325 325 325 325 325 325 324 324 324 325 326 329 333 336 338 338 339 341 341 343 345 344 343 344 344 343 342 339 339 344 347 349 350 351 353 354 354 355 355 352 346 343 344 344 343 343 342 342 342 342 343 343 343 344 344 344 345 344 344 344 344 344 345
332 330 330 330 329 329 328 327 324 323 324 324 325 325 325 324 324 324 324 324 324 325 328 331 335 338 337 338 339 340 342 345 345 344 345 344 342 341 340 342 344 346 346 348 350 352 353 354 354 353 351 347 344 344 344 343 343 342 342 342 342 342 343 344 344 345 344 344 343 343 343 344 344 344
332 331 330 330 329 329 328 325 323 323 323 324 325 325 325 325 324 324 324 324 324 325 327 329 333 336 337 338 339 340 343 346 346 344 345 346 345 344 344 343 343 344 344 346 349 350 353 355 353 352 352 349 346 345 345 344 344 344 344 344 343 344 345 345 344 344 343 342 342 342 343 343 344 344
331 330 330 330 330 329 327 325 324 324 324 324 325 325 326 325 325 325 324 324 324 325 326 328 330 333 336 338 338 339 342 346 347 345 344 346 346 347 347 346 345 345 345 347 349 351 353 354 353 352 352 350 348 347 347 346 346 346 345 345 345 345 345 344 343 342 342 342 343 343 343 343 344 343
329 329 329 329 329 329 328 327 326 325 324 325 325 326 327 326 326 325 324 324 324 325 326 327 329 332 335 336 337 337 339 343 346 345 345 346 346 347 348 349 349 349 349 349 350 352 353 354 353 353 353 350 349 349 349 348 347 347 346 346 346 345 344 343 342 342 342 342 342 342 342 343 343 343
328 329 328 329 329 329 328 328 326 325 325 326 327 328 327 325 325 325 325 324 324 324 325 325 327 329 332 333 335 337 338 340 344 345 345 346 346 345 346 347 349 350 352 351 350 350 351 352 352 354 354 352 351 350 350 349 348 348 347 346 346 344 343 343 343 342 342 341 341 341 340 341 341 342
326 329 330 330 329 328 327 327 326 326 326 328 329 327 325 324 324 324 324 324 324 324 324 325 326 327 330 331 333 336 338 339 342 342 341 343 345 344 345 346 348 349 350 352 350 349 350 351 351 353 354 354 354 353 352 351 350 348 346 345 344 343 342 343 342 342 342 341 341 340 339 339 340 340
326 330 332 331 329 328 328 327 327 327 327 329 329 326 323 324 324 323 323 323 323 323 323 324 325 326 328 330 331 334 336 338 341 341 340 343 345 344 344 346 347 346 347 351 352 352 352 352 351 352 353 354 354 353 352 350 350 348 346 342 341 342 342 343 342 342 342 342 341 339 338 338 338 339
328 330 332 331 329 330 331 329 328 328 329 330 329 325 323 324 323 322 323 323 322 323 323 324 325 325 327 328 329 331 334 336 339 340 341 343 345 343 342 344 345 346 347 349 351 352 353 353 352 351 352 353 353 353 351 348 347 348 345 342 340 341 341 342 342 343 343 343 340 336 335 336 337 339
328 327 328 329 329 329 330 329 328 329 329 330 329 326 323 323 323 323 323 323 323 323 322 322 323 324 325 326 327 329 332 334 337 339 339 342 344 342 342 343 343 346 347 345 347 348 350 353 354 352 351 351 352 352 351 348 346 345 345 344 343 342 342 342 343 344 343 341 338 335 335 336 339 341
325 324 326 328 329 328 326 328 330 330 329 330 329 325 323 323 323 323 322 322 322 323 322 322 322 322 322 323 324 325 328 331 333 336 339 341 341 341 344 344 343 344 345 341 343 346 348 350 353 353 351 350 350 351 352 350 346 346 348 349 347 344 344 344 344 344 342 339 336 334 336 338 341 343
323 323 326 328 328 327 326 328 329 328 329 328 326 323 322 323 323 322 321 321 322 322 322 322 322 323 323 323 323 323 324 326 328 333 338 340 340 342 346 347 344 342 343 341 342 345 347 348 351 352 351 349 349 351 352 351 348 348 350 352 351 349 348 348 346 344 342 339 337 336 338 341 343 345
322 323 326 327 328 327 328 328 327 327 327 326 323 322 322 323 323 322 320 320 321 322 322 322 323 325 326 325 324 324 325 325 326 329 335 339 340 342 345 344 342 341 341 340 343 346 346 347 349 350 350 349 349 352 354 354 351 351 352 353 353 353 353 350 348 344 341 339 338 338 341 344 346 346
324 323 325 327 327 327 328 328 329 328 325 323 321 322 323 323 322 321 320 321 322 322 323 323 323 326 330 329 327 326 326 326 326 328 332 337 339 342 343 341 342 344 343 339 341 346 346 346 347 349 349 349 349 351 354 354 354 353 354 354 353 354 352 349 346 343 340 339 340 342 345 347 347 345
326 325 325 326 326 327 328 328 327 325 322 321 322 322 323 323 322 321 320 321 322 322 323 323 323 325 329 330 330 329 327 327 327 328 331 335 338 342 344 344 344 347 346 342 343 346 347 345 345 346 348 350 350 349 351 353 354 353 354 354 353 352 350 347 345 342 341 341 343 346 348 348 345 343
328 326 326 326 326 327 327 325 324 323 321 321 322 323 324 324 322 321 321 321 321 322 322 322 323 323 325 328 332 333 330 328 329 330 332 335 338 340 343 344 345 346 346 345 345 346 346 345 345 346 347 349 350 350 350 351 351 352 352 353 352 351 348 346 344 342 342 344 346 348 348 346 344 343
328 327 327 327 325 324 324 324 323 322 321 322 323 323 325 323 319 319 320 320 321 322 321 321 323 323 323 324 328 332 334 333 333 335 336 337 339 340 341 342 343 344 343 343 343 344 345 346 347 348 349 349 349 350 350 349 349 350 350 349 350 349 348 346 345 344 344 346 348 348 347 344 343 344
327 327 327 326 323 323 325 325 324 323 322 323 323 324 325 322 317 318 320 320 320 322 321 321 321 322 323 323 324 327 331 334 336 338 339 338 339 340 340 340 340 341 341 342 343 344 344 345 346 348 350 348 346 347 349 350 349 349 349 347 347 349 348 346 344 344 345 346 346 344 343 341 342 345
325 326 325 323 322 323 325 326 326 325 323 322 322 323 323 321 318 318 319 320 320 321 321 321 321 321 322 323 323 323 326 331 336 338 340 340 339 339 339 339 339 339 340 341 342 342 343 344 347 349 348 346 345 346 348 349 348 347 348 348 347 348 347 344 343 342 343 343 342 341 340 340 341 343
325 324 323 323 323 324 325 326 326 324 321 320 321 322 322 320 319 319 318 319 320 321 320 320 321 321 321 321 322 322 323 327 333 337 339 339 340 340 340 340 339 338 339 339 340 340 342 344 346 348 347 345 346 347 348 348 346 344 346 348 348 347 345 343 342 342 341 341 340 340 340 340 340 342
323 322 323 324 324 324 324 325 325 322 319 318 319 320 318 317 319 319 317 317 319 320 320 320 320 321 321 321 321 322 322 324 328 334 338 338 339 340 340 340 341 340 339 338 339 340 341 343 345 346 346 347 347 347 346 347 346 345 346 348 348 347 345 344 343 343 342 340 340 340 340 339 339 340
321 323 325 324 323 322 322 322 322 320 317 316 316 316 314 314 316 317 316 316 317 318 319 320 320 320 321 321 320 321 322 322 323 328 333 336 337 339 340 340 341 341 340 340 340 342 343 343 342 342 343 346 348 347 346 346 346 346 346 347 347 347 346 345 344 343 342 341 339 338 338 339 339 339
322 324 325 323 320 320 319 319 318 317 316 315 314 313 313 313 313 314 315 316 316 317 318 319 320 320 320 320 320 320 321 321 321 323 325 328 330 333 336 338 339 340 342 342 341 343 344 344 342 342 343 345 347 346 345 344 344 345 346 346 346 346 346 345 344 342 341 340 338 337 337 338 338 338
322 323 323 321 318 318 318 317 316 316 315 315 314 313 313 313 312 313 313 314 315 316 316 318 319 320 320 320 320 320 320 321 321 321 322 322 323 325 327 328 328 332 338 342 341 342 344 344 343 344 344 344 344 344 344 343 342 344 345 345 345 346 346 345 344 342 340 339 338 337 337 338 339 338
322 321 320 319 317 316 316 316 315 314 314 314 313 313 313 313 312 312 312 313 314 315 316 317 318 319 319 320 320 321 320 320 320 321 322 321 321 321 322 322 322 324 329 333 334 337 341 343 343 342 341 341 340 340 342 342 341 342 344 344 344 345 345 344 343 341 339 338 338 338 338 338 339 338
320 319 318 317 316 316 315 314 314 313 312 312 312 312 312 312 312 311 311 312 313 314 315 316 317 318 319 319 320 320 321 321 320 321 321 322 321 321 321 321 321 321 322 324 326 329 336 340 339 338 337 338 337 337 338 340 341 342 343 344 345 345 344 343 342 341 339 338 338 339 339 339 339 338
318 317 316 315 314 314 313 313 313 312 311 311 310 310 311 311 310 309 309 310 311 312 314 315 315 316 317 318 320 320 320 321 321 321 321 322 322 321 321 320 321 320 320 321 321 324 329 335 337 337 337 337 338 337 335 335 338 340 342 343 344 344 343 343 342 340 339 339 339 339 339 339 339 338
315 314 314 312 312 311 311 310 310 310 309 309 309 309 309 310 309 308 308 309 309 311 312 313 314 315 316 317 318 319 320 320 321 322 322 322 322 322 322 321 320 319 319 320 320 321 324 327 330 333 336 338 340 337 332 330 333 336 339 341 342 343 342 342 341 340 339 339 339 340 340 340 340 339
312 311 310 309 308 308 307 307 307 307 307 307 307 308 308 308 308 307 307 307 308 309 310 311 311 313 314 315 316 318 319 319 319 320 322 322 323 323 322 322 321 320 319 319 320 320 321 321 322 325 329 333 335 333 329 328 328 329 334 339 341 341 341 342 341 340 340 339 338 338 339 340 340 340
309 308 307 307 306 305 304 304 304 304 304 304 305 305 305 306 306 306 306 306 307 308 309 310 310 311 313 314 314 316 318 318 318 319 320 321 323 324 323 323 323 322 320 319 319 319 320 320 320 320 322 325 326 326 326 327 326 326 330 336 338 338 339 341 340 340 339 338 337 338 339 340 340 340
308 307 306 306 305 305 304 303 303 303 303 303 303 303 303 304 304 304 305 305 306 307 308 308 309 310 311 312 313 314 315 317 317 318 318 319 322 324 324 324 323 323 322 321 319 320 320 320 319 318 319 320 321 322 323 324 324 325 326 328 331 334 336 338 340 339 338 337 337 337 338 338 338 338
307 307 306 306 306 305 305 304 304 303 303 302 302 302 302 302 302 303 303 304 304 305 306 307 308 309 310 311 312 312 313 315 316 316 317 318 319 322 323 324 324 324 323 322 321 321 321 321 319 317 318 319 320 321 322 322 323 324 324 323 325 329 331 333 335 336 336 336 337 337 337 337 337 337
306 306 306 306 306 306 306 305 305 304 303 303 302 301 301 301 301 302 302 302 302 304 305 306 306 307 309 310 310 311 312 313 314 315 316 317 318 320 320 321 322 323 323 322 322 322 321 321 318 317 317 318 319 320 322 322 321 322 323 323 322 323 324 326 327 329 331 332 334 335 336 336 335 335
305 305 305 305 305 305 305 305 304 304 303 303 302 301 300 300 300 301 301 301 301 302 303 304 305 306 307 308 309 309 311 312 312 313 314 315 316 317 318 318 318 320 322 323 323 323 322 321 320 318 317 317 318 319 320 321 321 322 323 323 322 320 321 321 321 322 323 323 324 328 331 333 333 333
305 305 304 304 304 304 303 303 303 302 302 301 300 300 300 299 299 300 300 301 301 301 302 303 303 304 306 307 307 308 309 310 311 311 312 313 313 314 316 316 315 316 319 321 323 325 324 323 322 321 320 318 319 320 319 319 319 321 323 323 322 321 321 320 320 320 320 319 318 321 324 326 327 328
305 304 304 304 303 303 303 302 301 301 301 300 298 298 298 298 297 298 299 300 300 300 302 303 303 303 304 305 305 306 308 309 310 310 310 311 311 312 313 314 313 313 315 318 320 323 324 323 323 323 322 321 321 321 319 316 317 319 320 321 323 323 322 321 320 320 320 318 318 318 318 319 320 320
Wind_Speed
13 13 13 13 15 17 20 22 21 20 21 22 24 22 18 14 9 8 10 8 10 17 20 20 21 22 23 26 26 27 30 34 35 35 36 34 30 32 37 38 36 35 38 42 41 38 35 33 33 34 35 36 36 36 36 36 36 35 35 35 34 33 33 32 31 31 30 31 30 30 30 29 29 28
12 12 12 13 16 18 19 21 21 21 23 23 23 23 22 20 14 10 9 10 13 17 19 22 23 22 25 28 28 29 31 33 34 35 38 37 34 32 31 34 37 35 35 41 43 40 36 33 33 34 35 36 37 37 36 36 37 37 36 36 36 35 34 33 33 32 32 32 32 32 31 31 30 30
10 10 11 12 16 17 18 19 22 25 25 25 25 25 24 23 21 18 13 10 15 19 19 23 27 25 25 28 29 30 32 32 33 35 35 35 36 35 31 33 38 35 32 35 41 43 38 35 35 34 35 37 38 38 37 36 36 37 37 37 37 36 35 34 34 33 33 33 33 33 32 32 31 31
9 9 10 12 14 15 17 19 21 24 25 25 25 25 26 25 23 23 19 12 16 24 24 25 31 31 28 29 30 31 32 31 31 31 30 29 32 34 33 35 37 36 33 32 36 42 41 37 35 35 35 37 37 37 37 36 36 36 37 38 38 37 36 35 34 34 34 34 33 33 32 32 31 31
7 7 9 12 12 13 16 18 19 20 22 24 24 25 25 24 23 24 23 16 15 23 25 24 29 31 29 28 29 31 32 31 30 30 28 29 31 31 32 34 36 38 37 35 36 40 42 40 37 35 35 36 36 36 36 36 36 36 37 38 38 37 36 35 35 34 34 33 33 32 32 31 31 31
6 7 9 10 11 12 13 15 17 19 20 21 23 24 22 23 24 24 25 22 18 19 23 23 25 27 27 28 29 31 33 33 33 33 31 30 29 27 28 32 35 38 39 39 38 38 41 41 38 35 34 34 35 35 35 35 35 36 37 38 38 37 36 35 35 34 34 33 33 32 31 31 30 30
7 7 7 8 9 9 11 13 16 19 20 19 20 22 23 23 25 25 24 24 22 21 23 24 23 23 24 26 29 31 33 34 35 35 34 32 30 29 30 31 32 36 38 40 39 37 39 41 39 36 34 34 35 35 34 34 33 34 36 37 38 37 36 35 34 34 33 32 32 31 30 30 29 28
8 7 7 8 8 9 10 13 16 19 20 19 18 20 24 25 26 26 25 25 26 25 24 24 25 25 23 25 28 29 29 31 34 35 34 32 30 32 32 30 30 33 35 36 36 35 37 39 38 36 35 34 35 35 34 33 32 33 35 36 37 36 35 35 34 33 32 31 31 30 29 28 28 27
10 8 8 9 9 10 11 14 17 19 20 19 19 21 24 25 26 27 28 27 27 26 25 26 28 28 25 26 29 28 27 27 28 31 32 30 28 30 31 31 30 31 31 33 34 33 34 37 37 37 36 35 35 36 35 34 33 34 35 36 36 36 35 35 34 32 31 30 30 29 28 28 27 27
13 11 11 11 11 11 12 14 16 19 19 19 20 21 22 24 27 28 29 28 27 26 27 28 29 29 25 25 28 28 27 26 25 26 27 27 28 29 30 32 31 29 28 31 32 32 33 36 36 36 35 35 36 37 36 35 35 35 36 36 36 35 35 33 32 31 30 29 29 28 28 27 27 26
16 16 15 14 13 11 11 13 15 16 18 18 19 20 21 24 26 27 27 28 27 25 25 26 26 27 26 26 27 28 27 26 27 26 22 21 26 31 34 35 32 29 29 31 33 34 33 34 35 35 35 35 35 36 36 36 36 35 35 35 34 34 33 32 31 30 29 29 28 28 28 27 27 26
18 19 19 17 15 13 12 13 13 14 16 17 19 20 22 25 26 26 27 26 25 24 23 24 24 24 25 25 26 28 25 21 22 26 23 21 26 32 36 38 35 33 33 34 35 36 34 33 33 33 33 34 33 33 33 34 34 34 33 33 33 32 31 30 30 29 29 29 28 28 28 28 28 27
22 23 22 20 19 17 16 15 14 15 15 16 18 20 23 25 26 26 26 25 24 23 22 22 23 22 21 21 22 24 23 20 20 25 27 25 27 30 33 37 38 36 36 36 35 35 35 34 33 34 34 33 32 31 32 32 33 33 32 32 31 31 30 30 29 29 29 29 29 29 28 28 28 27
24 23 23 24 24 22 19 16 16 17 18 17 17 19 23 27 28 27 26 25 24 23 21 21 21 19 19 20 20 22 25 23 22 25 26 25 25 25 23 27 32 35 35 35 34 34 35 34 32 33 34 33 31 30 31 33 33 33 32 32 31 30 30 29 29 29 29 29 29 28 28 28 28 28
25 26 26 25 22 18 18 17 17 18 19 17 16 19 26 30 30 29 28 27 27 25 23 23 22 19 19 23 23 22 25 26 24 24 24 23 23 19 13 14 20 29 33 34 33 33 34 35 33 31 31 32 31 31 32 33 33 33 32 31 30 30 30 30 29 29 29 28 28 28 28 28 28 28
27 28 24 19 17 18 20 22 22 22 19 16 17 23 29 31 30 31 31 30 29 28 26 25 25 23 22 25 25 23 24 26 24 21 21 22 22 20 18 16 17 24 32 32 29 29 32 34 35 33 32 33 32 33 34 33 33 32 31 29 29 29 29 30 29 29 28 29 29 29 29 28 27 27
26 24 20 18 21 24 25 24 24 24 20 18 20 27 31 30 30 33 34 31 30 31 29 27 27 26 25 25 26 25 24 25 23 18 20 24 23 21 22 23 22 25 30 30 25 23 29 34 36 36 36 35 34 33 34 33 32 31 30 29 29 29 29 30 29 29 29 29 29 30 29 28 27 27
24 24 22 22 22 22 22 22 23 22 21 22 24 28 30 31 32 33 32 32 32 31 30 29 30 31 30 29 29 30 28 27 26 21 19 22 23 21 22 25 21 17 23 30 22 14 23 33 35 35 36 36 34 34 33 33 32 32 31 30 29 29 29 29 30 30 30 31 30 30 28 27 27 26
24 26 26 23 19 18 19 20 19 18 21 23 24 26 30 32 34 34 32 32 34 35 34 33 35 35 33 32 33 32 30 29 29 26 24 22 21 22 24 24 18 9 14 26 20 11 17 29 32 33 35 35 33 34 34 33 32 31 31 30 29 29 29 30 31 31 32 32 30 28 27 26 25 25
23 25 24 19 15 15 17 17 15 15 19 21 21 25 31 33 33 34 34 35 36 39 39 39 41 41 40 39 39 39 37 33 30 27 26 24 20 18 17 18 19 15 14 22 24 17 17 24 29 30 32 32 32 34 36 35 33 30 30 29 29 28 28 29 31 31 31 31 29 27 25 25 24 23
21 23 22 18 15 14 13 13 14 15 18 20 20 25 30 31 32 34 38 41 42 42 42 43 44 44 44 42 43 45 44 41 35 27 22 21 21 17 10 7 13 17 17 22 27 23 18 19 24 27 28 30 33 34 36 37 35 32 31 31 30 29 29 29 29 29 29 29 28 26 25 24 23 22
21 22 20 15 14 13 11 11 15 16 16 17 19 23 27 28 30 34 41 47 49 48 47 46 45 40 35 35 39 42 43 42 40 33 25 22 21 16 11 8 9 13 18 23 25 21 17 18 22 23 21 22 29 32 32 34 36 35 33 32 31 30 31 30 28 27 27 27 26 25 24 23 22 22
20 20 17 12 10 11 11 13 16 15 13 14 18 22 25 25 28 36 43 47 49 48 47 47 46 39 26 26 30 35 38 40 41 38 31 27 23 16 14 14 11 8 14 23 25 21 18 20 22 20 14 10 17 22 24 28 33 35 34 33 32 31 31 29 27 26 25 24 24 24 23 22 22 22
17 15 13 12 10 10 10 13 14 11 10 13 17 21 23 25 30 39 44 46 44 42 42 43 43 38 25 19 24 27 32 36 39 39 34 30 27 20 16 16 13 9 11 18 24 23 20 20 23 22 16 10 7 12 20 27 31 32 33 34 33 32 30 28 26 24 23 22 23 23 22 22 22 21
13 12 12 12 12 13 14 14 12 8 8 13 16 19 23 26 32 39 41 42 42 39 39 40 39 37 31 18 16 22 27 29 32 35 35 32 29 24 20 18 14 13 13 14 18 20 18 18 21 22 20 14 9 13 20 25 28 31 33 35 36 34 30 28 25 23 23 23 23 23 22 22 21 20
13 12 12 12 14 16 16 14 9 6 9 14 16 18 22 25 32 36 35 38 40 38 37 39 37 35 35 31 21 12 18 24 25 28 30 31 30 27 26 23 19 17 17 16 16 16 15 15 17 17 17 13 9 13 15 15 20 27 29 30 34 34 31 28 26 24 24 24 23 22 22 21 21 20
14 13 12 14 16 16 13 12 9 8 11 15 16 18 20 24 31 34 32 35 39 38 37 38 37 37 37 36 34 27 15 13 22 26 27 27 29 29 29 28 25 23 21 18 15 13 13 15 16 15 12 7 5 7 10 10 16 23 25 25 28 31 30 29 26 25 25 24 23 22 20 20 21 22
13 13 13 14 15 13 10 9 8 9 13 17 18 18 18 22 29 32 31 33 38 38 37 37 36 38 39 38 37 37 30 17 13 22 26 26 29 31 31 31 30 27 24 21 18 15 14 16 16 13 9 5 6 6 9 10 14 19 21 22 23 24 25 25 24 23 23 23 23 23 22 23 23 23
12 12 14 15 14 12 9 8 8 12 17 18 16 16 17 20 25 28 30 32 34 35 36 37 35 36 40 42 40 37 33 24 12 12 19 21 24 27 29 30 31 30 28 26 24 21 19 17 14 8 5 6 8 9 8 10 16 21 22 21 20 20 21 21 21 21 20 21 23 24 24 25 25 24
11 12 14 14 13 11 9 7 8 13 18 17 15 17 19 20 22 25 27 29 30 30 33 35 36 36 39 41 41 39 36 32 21 7 9 13 16 21 24 24 24 26 27 26 25 22 20 19 17 11 6 7 11 10 8 10 16 23 26 24 21 19 19 21 22 22 21 20 20 22 23 23 24 25
12 12 11 11 10 10 10 9 9 12 17 19 19 21 23 23 23 24 25 27 27 28 30 32 36 39 40 40 41 39 36 35 32 19 6 2 8 14 20 21 20 20 21 21 20 18 18 20 19 15 10 8 8 7 8 8 11 19 24 23 21 20 22 24 24 23 24 22 19 18 19 20 20 22
12 11 9 8 11 11 10 11 11 12 15 18 20 22 23 24 26 26 27 28 28 29 29 30 33 38 39 39 40 39 35 35 36 31 24 19 14 6 4 8 10 13 17 18 16 15 15 16 15 13 11 9 7 7 8 7 10 17 22 24 23 22 24 26 26 25 24 22 18 17 18 20 20 20
12 10 8 9 11 11 10 11 12 12 13 15 19 22 23 24 26 27 27 28 29 30 30 29 30 33 35 36 36 37 36 35 35 34 32 29 26 21 17 15 13 7 5 13 16 14 13 12 10 10 11 10 9 9 7 7 9 16 22 25 24 22 24 27 27 26 25 23 19 18 18 20 21 20
10 9 9 9 10 10 9 10 11 12 13 14 17 20 21 22 25 26 26 27 28 28 29 29 29 29 29 31 33 34 33 34 35 34 31 28 27 26 23 22 23 22 14 6 4 6 9 11 11 10 9 8 5 4 7 11 13 16 21 25 23 22 26 27 25 26 26 24 20 18 17 18 19 18
9 9 9 8 9 9 9 10 10 11 12 14 16 18 19 20 23 24 25 26 27 27 27 28 30 29 27 27 29 31 32 32 33 33 31 29 28 27 24 22 22 22 22 20 15 7 3 10 13 14 10 7 6 5 4 10 15 16 17 20 22 22 25 26 26 26 26 23 20 18 16 17 18 17
9 9 9 9 9 9 9 10 10 11 12 13 14 16 18 19 21 23 24 24 24 24 25 26 27 28 28 26 26 28 30 30 30 30 30 29 28 26 25 24 22 22 23 24 20 14 9 8 12 12 8 4 4 4 3 4 10 15 15 17 21 23 24 26 26 26 25 23 21 18 15 16 18 18
10 10 10 10 10 10 10 11 11 11 12 13 13 14 15 16 18 21 22 23 23 23 24 25 25 26 27 28 27 27 28 29 28 27 27 27 26 25 23 21 21 22 24 24 23 20 19 17 13 9 5 4 4 3 2 4 4 6 11 14 19 23 26 27 26 24 23 22 20 18 16 16 18 19
11 10 10 11 11 11 11 11 12 12 13 14 14 14 14 15 17 19 20 22 24 24 23 25 26 26 26 27 28 26 26 28 27 27 27 26 25 23 21 19 18 20 23 25 25 24 24 26 23 17 9 4 3 3 3 5 9 9 2 12 19 22 25 27 25 22 20 18 17 16 16 18 19 18
11 10 10 10 10 11 11 13 13 12 13 14 14 14 15 16 17 19 20 21 23 23 23 24 26 27 26 28 28 26 25 25 25 24 25 26 24 23 21 18 17 18 20 23 25 25 26 27 26 22 18 12 7 7 8 9 13 20 18 11 13 15 19 22 23 21 18 17 16 15 16 19 19 16
10 9 9 9 9 10 11 13 13 12 12 14 14 15 16 17 18 18 20 21 21 21 21 22 24 26 27 27 28 27 25 24 24 23 24 24 24 23 21 19 17 17 17 18 20 22 24 24 22 20 19 17 14 15 19 20 21 27 30 24 15 10 9 15 20 21 19 18 19 18 17 17 17 15
8 7 7 8 8 8 9 10 11 11 12 14 16 16 16 17 18 18 19 20 20 20 20 21 23 24 25 25 26 26 25 24 24 25 24 23 23 23 23 22 20 19 16 14 15 17 19 18 17 16 16 17 20 22 20 17 16 20 25 27 25 21 15 9 13 19 19 19 21 20 17 15 16 15
7 6 6 6 7 7 8 9 10 11 11 13 15 17 17 16 17 17 18 20 21 20 19 21 23 23 23 23 24 24 23 23 23 24 24 24 23 23 23 23 21 19 16 13 11 12 14 14 15 16 17 19 23 20 12 8 9 13 18 23 25 25 24 23 21 21 19 15 15 15 13 13 12 10
6 6 6 7 7 8 9 9 9 10 11 12 14 15 16 17 17 17 18 20 22 21 19 20 22 23 23 22 22 22 22 22 22 23 23 24 24 22 21 22 22 20 18 15 11 10 11 11 13 16 17 19 20 17 11 10 13 15 16 19 21 22 23 26 27 28 27 25 21 17 14 12 10 8
6 5 6 7 8 8 9 10 10 10 11 12 13 14 15 16 16 17 17 18 20 20 20 20 21 23 23 22 21 22 22 21 21 22 22 22 23 22 21 22 23 22 20 19 15 12 11 10 10 11 13 14 15 15 14 13 14 14 14 15 16 16 18 21 23 26 28 28 28 27 24 21 19 17
6 5 5 6 7 8 8 9 10 10 11 12 13 13 14 15 15 16 16 17 18 19 19 19 20 22 22 21 21 22 22 20 20 21 21 21 22 21 21 22 24 24 22 21 19 15 13 12 10 9 9 9 10 13 14 14 13 13 13 13 12 12 13 14 17 20 22 22 22 23 24 25 24 21
Wind_Direction
323 327 329 335 338 334 327 323 322 319 316 315 311 302 286 272 273 288 284 272 266 267 267 268 271 271 273 275 273 268 267 266 261 251 244 246 252 254 250 249 251 247 245 246 241 239 239 239 240 242 242 242 240 239 239 240 240 241 242 243 244 245 246 246 246 246 247 247 248 248 249 250 251 252
323 324 327 331 329 326 325 324 326 328 326 322 318 315 304 286 269 270 281 277 272 271 266 264 264 268 275 278 276 275 275 272 263 250 243 242 247 255 255 252 252 249 247 247 245 242 239 237 240 243 244 244 243 241 240 240 241 242 243 244 244 245 246 247 247 247 247 248 248 249 250 251 252 254
317 322 330 329 325 324 326 329 333 332 329 327 323 321 318 307 289 277 273 274 276 273 268 268 268 267 272 275 274 276 277 275 268 256 248 245 249 255 256 250 250 249 245 244 245 245 242 239 240 243 244 245 245 244 242 241 241 242 243 244 245 246 247 248 248 247 247 247 248 250 251 252 254 255
319 325 328 324 323 329 332 334 336 332 327 326 325 324 321 317 309 295 282 274 276 275 270 270 271 270 269 268 268 269 271 271 267 258 250 246 245 250 252 249 247 245 241 238 240 243 244 242 242 242 243 245 245 245 243 242 241 241 241 242 244 245 247 247 247 246 246 247 248 250 251 253 255 256
318 318 321 324 326 332 336 335 333 329 326 323 321 324 322 316 316 311 299 290 284 279 274 268 270 269 264 260 260 260 260 261 259 252 248 246 242 244 249 249 247 245 241 237 238 241 244 245 243 241 242 243 244 244 243 242 240 239 239 240 242 243 244 245 245 244 245 246 248 249 251 253 255 256
307 308 314 322 326 331 334 331 328 325 322 320 317 321 324 319 318 319 313 304 295 286 281 274 272 269 259 251 251 251 252 253 253 249 246 243 241 243 249 252 252 249 243 239 236 238 242 245 243 241 241 241 242 242 242 240 239 237 237 238 239 241 242 243 243 243 245 246 248 249 251 253 255 256
293 300 307 312 316 322 324 323 326 325 319 318 318 319 322 322 319 320 319 313 306 297 287 278 273 269 257 248 246 246 248 249 249 248 246 243 244 248 251 254 254 248 243 239 236 236 240 243 242 240 240 240 238 239 240 238 237 236 236 236 237 239 240 240 240 242 244 246 248 250 252 254 255 256
285 287 290 297 300 302 309 317 325 328 323 320 318 318 321 324 323 323 321 318 315 308 295 282 273 268 260 254 249 245 245 244 243 245 246 244 247 250 248 248 247 243 241 239 236 236 238 238 238 238 240 238 236 237 238 236 236 236 235 236 236 237 237 238 239 241 243 246 248 250 252 253 254 255
283 280 277 285 290 292 299 311 322 327 325 323 325 326 326 328 328 327 323 318 316 313 304 292 279 269 261 257 253 246 241 238 237 241 243 241 247 250 244 241 241 239 238 237 236 237 235 233 234 237 238 236 235 236 236 235 235 235 235 235 235 235 235 236 238 240 243 245 247 249 250 251 253 255
278 276 271 274 280 286 292 301 313 322 323 324 332 335 332 332 333 330 325 319 316 314 309 300 285 270 261 259 257 250 241 233 227 228 233 238 248 251 240 235 235 235 236 235 233 236 235 231 232 235 235 235 235 235 236 236 236 236 236 235 234 234 235 236 238 240 242 244 246 247 249 250 252 254
272 275 270 267 272 274 282 293 304 315 318 320 329 334 333 332 332 329 325 320 316 314 311 306 292 274 264 263 261 255 246 234 226 224 222 228 240 242 234 230 230 233 238 238 235 235 234 230 230 232 233 235 235 235 236 236 236 236 236 234 233 232 233 234 236 238 241 243 245 246 248 249 251 253
275 277 269 263 264 261 269 288 300 307 310 310 314 323 328 329 327 325 323 319 315 311 308 306 301 287 274 267 264 259 247 229 222 222 216 215 225 229 228 228 228 229 233 236 235 236 234 229 228 231 233 234 233 233 234 235 235 234 233 231 230 230 231 233 235 238 240 242 244 246 247 249 251 253
278 276 269 263 259 258 267 287 297 299 304 302 299 308 320 323 321 319 318 315 312 308 306 304 304 299 285 272 270 265 249 227 216 218 217 217 225 227 225 225 226 226 228 228 228 231 230 225 225 230 232 231 229 229 231 232 232 231 229 228 228 228 230 232 235 237 240 242 244 246 248 250 251 253
280 275 270 264 260 259 264 278 288 291 297 296 290 300 315 317 314 312 310 310 308 304 301 300 299 297 289 280 274 268 261 249 230 220 216 216 224 232 232 227 224 222 222 222 222 224 226 223 223 228 230 228 226 227 229 231 231 229 227 227 227 228 231 232 234 237 239 242 245 247 249 251 252 253
288 283 277 270 268 268 267 275 286 292 297 295 288 301 315 315 312 308 304 303 303 301 297 295 293 289 288 286 280 271 266 259 243 226 219 214 213 221 233 233 225 219 216 216 219 222 224 222 220 222 226 225 224 226 228 230 231 229 228 227 228 229 231 231 233 236 239 243 246 248 250 251 252 252
298 294 289 287 294 291 284 286 291 293 298 297 294 309 319 319 316 315 310 303 299 297 293 289 288 285 282 283 282 275 269 263 254 235 223 222 217 213 221 226 220 217 213 210 212 218 220 219 217 218 222 224 223 225 227 228 229 228 227 227 228 229 231 231 232 236 241 245 248 250 251 251 250 250
304 299 296 298 298 289 283 287 290 290 296 300 304 318 324 321 320 322 320 313 305 298 291 284 283 282 279 278 278 276 273 271 267 247 227 227 222 213 222 225 217 215 215 208 207 215 215 213 214 216 219 222 224 226 228 228 228 227 225 224 226 228 230 232 233 237 243 247 250 252 251 249 247 247
304 307 305 297 294 289 284 288 290 289 294 300 308 320 324 320 320 323 321 317 311 305 295 285 282 280 276 273 274 274 272 268 269 263 246 237 229 220 226 230 221 216 215 209 208 220 215 209 210 214 216 218 221 225 228 227 227 228 225 222 224 227 229 232 235 239 244 247 250 252 250 247 245 245
307 318 315 300 293 297 294 295 294 287 293 304 311 318 321 319 320 320 319 317 315 310 301 291 284 280 274 269 268 269 266 263 264 263 258 256 248 230 223 224 220 206 199 201 205 234 227 210 207 213 215 214 217 223 226 225 225 226 225 223 223 226 229 232 236 239 242 246 249 249 247 243 241 243
313 319 314 297 291 305 305 301 297 291 301 314 316 314 317 319 319 320 322 322 319 313 306 297 289 282 273 265 260 258 257 259 263 264 261 259 251 231 218 214 208 196 182 187 200 225 232 212 207 215 217 214 215 220 222 222 222 222 222 222 222 225 227 230 233 237 241 245 248 246 243 240 239 240
317 318 312 294 289 308 314 306 306 310 316 320 318 315 316 317 318 323 329 329 325 319 313 307 302 290 275 263 256 252 251 251 254 259 259 250 234 218 207 205 206 203 195 192 200 217 229 215 210 215 216 215 218 220 220 220 221 220 221 222 224 226 228 228 231 236 242 246 246 243 238 237 236 237
312 320 324 311 301 316 323 313 316 321 321 322 324 322 318 315 320 328 333 332 330 327 324 323 321 309 283 260 252 248 244 243 243 243 244 243 235 216 196 199 212 214 217 215 214 219 225 218 212 210 209 221 230 226 217 214 215 217 218 220 222 224 226 228 231 238 243 245 242 238 234 233 233 235
303 316 331 332 321 323 317 308 313 318 320 330 336 330 321 318 326 334 334 332 329 328 329 330 332 328 300 260 249 247 241 235 234 235 234 235 235 223 199 198 205 212 228 228 222 216 216 217 217 209 195 215 238 230 215 210 210 210 211 213 218 219 221 225 231 236 240 240 235 231 230 230 230 232
298 309 328 335 332 330 318 309 311 312 323 341 345 338 328 324 330 335 335 334 332 330 332 334 338 342 327 271 248 248 243 233 229 230 230 227 228 226 207 199 205 215 227 223 214 209 207 211 218 221 217 215 212 211 217 218 213 210 212 212 212 212 215 221 229 233 233 231 227 226 226 228 227 226
290 304 327 335 333 330 325 322 317 309 329 346 346 338 331 332 338 338 335 337 337 336 340 343 345 350 350 324 267 244 235 228 225 227 228 224 224 225 217 209 213 224 230 225 217 214 213 211 214 220 225 222 182 175 205 217 212 209 212 211 208 209 214 220 225 227 225 222 220 221 223 224 222 219
291 305 320 327 328 326 327 329 322 301 323 337 335 332 337 347 351 346 340 341 342 342 348 353 353 355 360 357 342 290 232 216 214 221 225 222 219 220 221 220 222 230 240 246 240 231 226 222 216 211 214 214 182 167 186 202 203 202 203 204 207 211 215 219 221 221 218 217 217 218 220 220 215 213
295 304 313 322 328 330 331 333 323 307 323 332 327 327 341 358 1 353 346 347 349 349 353 358 359 360 2 2 357 349 322 245 216 213 217 220 219 220 223 224 226 232 238 244 244 239 236 236 231 220 208 189 144 165 189 192 191 194 196 201 210 214 215 216 217 216 215 214 213 213 214 214 211 211
298 309 320 327 331 329 325 326 326 327 334 334 329 331 345 4 6 357 349 349 352 353 357 1 1 360 2 2 358 355 351 330 255 220 214 216 218 221 225 226 228 232 235 237 240 242 243 241 232 220 208 172 139 177 206 196 183 186 191 198 207 214 215 211 209 210 210 209 209 208 208 209 208 211
305 319 329 333 333 330 323 320 329 339 339 335 334 343 355 5 7 359 351 352 355 356 358 1 359 358 1 0 357 358 4 2 330 246 222 218 217 220 224 226 227 229 231 235 243 248 248 243 236 222 217 225 217 210 206 195 192 194 194 191 194 204 206 199 198 203 204 204 208 210 208 208 208 209
322 331 336 338 342 351 359 356 345 345 346 348 357 5 7 8 7 0 354 355 358 357 357 360 359 359 0 1 360 3 12 17 11 333 241 234 232 225 221 221 221 223 226 230 237 243 242 240 244 244 229 227 231 222 198 185 195 203 203 194 185 189 194 191 192 199 200 201 209 214 213 212 211 211
334 335 338 350 6 19 23 17 0 349 353 3 13 17 16 15 10 4 1 3 2 358 356 358 1 2 3 4 4 5 11 18 20 24 40 290 269 246 230 221 211 207 214 221 224 227 228 233 243 248 241 232 224 202 177 175 200 213 212 200 185 182 186 187 188 194 198 199 205 212 211 209 210 213
340 338 339 6 21 18 15 14 5 354 356 4 11 15 16 15 12 10 10 9 5 360 355 355 0 4 5 5 5 5 9 14 19 27 43 47 31 5 238 222 214 206 208 209 209 209 214 222 231 232 229 226 214 189 166 169 211 222 210 199 193 189 186 184 184 188 192 192 195 201 203 202 207 214
341 346 354 17 20 9 6 11 4 354 354 358 2 8 12 11 11 11 10 5 1 359 357 356 359 4 5 4 5 7 9 12 15 24 36 44 42 43 50 46 28 5 224 199 197 202 204 203 201 202 207 212 224 228 201 181 212 220 206 199 199 191 183 183 185 185 185 184 186 193 199 202 207 212
351 4 11 18 16 6 5 10 4 356 356 358 357 360 3 5 6 6 5 2 360 359 360 1 2 4 4 4 5 7 8 10 15 22 31 40 45 46 48 47 36 25 25 60 140 195 203 186 165 159 173 179 186 223 210 197 203 206 200 203 201 184 177 183 184 182 184 184 182 186 192 196 202 210
12 17 16 17 14 7 7 11 6 0 0 360 356 354 356 359 1 1 0 360 358 357 360 4 7 6 4 3 5 8 10 11 14 19 25 32 41 44 45 46 43 35 30 32 34 39 168 171 149 131 129 133 122 111 163 195 199 198 197 202 197 181 174 178 180 180 184 184 180 180 183 187 195 206
29 22 21 23 14 7 7 7 5 5 3 359 356 354 354 356 358 359 358 358 358 358 360 4 8 7 5 6 7 10 13 14 14 16 20 26 31 36 39 41 40 38 36 31 27 34 66 119 141 141 138 134 130 121 108 159 188 199 198 189 182 177 174 174 176 178 179 179 180 180 178 180 188 198
38 28 26 26 16 10 8 3 2 5 2 357 354 354 353 352 353 356 357 358 1 3 3 5 8 8 7 8 10 11 15 17 15 13 15 20 24 27 30 33 34 37 38 33 26 32 52 69 85 109 135 149 144 138 67 62 108 183 197 178 166 169 173 171 172 176 178 179 184 187 182 175 179 187
41 34 31 29 22 17 13 8 6 6 4 360 356 354 354 351 350 354 359 1 4 6 6 8 11 10 9 10 11 11 15 18 17 12 10 13 17 20 21 23 27 33 39 38 31 31 43 53 55 55 58 78 107 94 59 46 45 42 124 174 168 167 169 169 169 174 177 177 180 182 179 174 173 180
42 38 35 30 24 22 21 19 15 8 3 1 357 354 354 352 351 355 0 3 5 6 7 8 10 10 11 13 12 11 14 18 17 12 9 9 12 16 17 18 21 27 36 41 36 32 37 44 47 48 53 59 63 69 81 81 56 48 59 107 153 163 166 169 169 168 169 171 169 161 155 156 159 168
39 36 31 26 22 17 16 17 15 8 2 0 359 357 357 356 356 358 360 1 4 6 6 7 8 9 11 12 12 11 12 14 15 14 12 11 11 13 15 18 21 25 32 38 37 34 35 38 43 53 64 72 76 74 75 75 61 50 52 59 68 87 136 170 173 166 162 166 163 151 143 143 142 148
34 27 19 16 14 10 8 9 8 3 359 359 359 359 359 359 1 1 359 360 3 6 6 6 7 8 8 10 12 11 10 10 12 13 13 13 13 15 16 16 18 25 31 31 31 36 38 37 43 60 75 78 74 68 64 60 52 45 47 51 56 60 64 91 137 145 149 159 160 152 146 145 139 137
29 19 10 8 10 11 10 8 5 2 359 358 359 358 358 359 2 3 1 1 3 6 6 7 7 6 6 8 10 11 10 9 10 11 12 12 12 15 18 15 13 19 28 26 22 34 43 43 48 59 66 66 67 65 60 54 55 52 51 53 56 59 60 61 74 91 102 117 135 141 144 146 138 126
25 20 14 13 16 19 16 10 8 7 4 2 1 359 358 359 3 5 4 3 3 4 4 4 5 5 5 6 8 8 10 11 10 9 11 12 12 12 14 14 14 18 25 27 25 34 43 41 44 54 60 64 67 69 67 65 62 57 56 58 57 57 60 62 65 71 74 72 74 86 110 130 129 116
22 21 19 16 18 22 19 13 11 11 10 8 5 3 1 1 2 4 5 4 4 3 2 4 6 5 4 5 6 6 8 11 13 12 11 12 13 13 12 13 16 19 22 22 22 28 37 36 36 47 59 67 74 75 72 68 62 57 61 66 63 59 61 62 64 68 70 65 62 67 80 92 98 102
16 15 17 20 21 22 20 16 13 13 15 15 9 5 5 2 1 2 3 2 3 2 360 1 4 4 4 7 6 5 5 8 11 15 15 13 13 14 14 14 15 17 18 17 15 18 29 36 38 43 47 52 65 77 79 77 71 65 61 61 60 65 71 70 68 71 71 67 62 66 72 78 83 90